N4MRV-1 Weather Reports


time (UTC)temp
F
wind
direction
speed
knots
gust
knots
rain 1hr
in
rain 24hr
in
rain mn
in
humidity
%
barometer
mb
20260506040055 70 203 0.9 7.8 0.00 0.00 0.00 60 1013.2
20260506034536 70 225 0.9 3.5 0.00 0.00 0.00 59 1013.0
20260506033016 70 225 0.9 6.1 0.00 0.00 0.00 58 1013.0
20260506031516 71 248 0.9 2.6 0.00 0.00 0.00 58 1013.0
20260506030016 71 225 0.9 5.2 0.00 0.00 0.00 56 1013.0
20260506024516 71 225 0.9 7.0 0.00 0.00 0.00 56 1012.9
20260506023016 71 180 0.9 4.3 0.00 0.00 0.00 55 1013.0
20260506021516 71 225 0.9 2.6 0.00 0.00 0.00 55 1013.0
20260506020016 72 248 0.9 6.1 0.00 0.00 0.00 54 1012.9
20260506014516 72 180 0.9 5.2 0.00 0.00 0.00 53 1012.7
20260506013016 72 203 0.9 6.1 0.00 0.00 0.00 52 1012.7
20260506011536 73 158 0.9 7.0 0.00 0.00 0.00 52 1012.4
20260506010016 73 180 0.9 5.2 0.00 0.00 0.00 51 1012.4
20260506004516 74 225 0.9 2.6 0.00 0.00 0.00 50 1012.2
20260506003016 75 158 0.9 7.0 0.00 0.00 0.00 48 1012.1
20260506001515 75 158 0.9 2.6 0.00 0.00 0.00 48 1011.9
20260506000015 76 68 0.9 1.7 0.00 0.00 0.00 45 1011.8
20260505234516 76 225 0.9 4.3 0.00 0.00 0.00 44 1011.7
20260505233016 77 225 0.9 5.2 0.00 0.00 0.00 43 1011.7
20260505231515 78 158 0.9 6.1 0.00 0.00 0.00 41 1011.7
20260505230016 79 158 0.9 4.3 0.00 0.00 0.00 40 1011.7
20260505224515 80 180 0.9 3.5 0.00 0.00 0.00 37 1011.7
20260505223016 81 68 0.9 4.3 0.00 0.00 0.00 35 1011.8
20260505221515 81 248 0.9 3.5 0.00 0.00 0.00 35 1011.8
20260505220015 81 270 1.7 7.0 0.00 0.00 0.00 34 1011.6
20260505214515 81 270 1.7 6.1 0.00 0.00 0.00 33 1011.5
20260505213015 81 225 1.7 4.3 0.00 0.00 0.00 34 1011.4
20260505211515 81 225 0.9 4.3 0.00 0.00 0.00 34 1011.4
20260505210015 81 225 1.7 9.6 0.00 0.00 0.00 35 1011.5
20260505204515 82 225 1.7 6.1 0.00 0.00 0.00 33 1011.4
20260505203015 83 225 1.7 4.3 0.00 0.00 0.00 32 1011.4
20260505201515 83 248 1.7 10.4 0.00 0.00 0.00 31 1011.4
20260505200015 83 225 1.7 7.8 0.00 0.00 0.00 32 1011.7
20260505194535 83 203 1.7 6.1 0.00 0.00 0.00 30 1011.8
20260505193017 84 225 0.9 4.3 0.00 0.00 0.00 33 1012.0
20260505191538 83 248 1.7 7.0 0.00 0.00 0.00 30 1012.1
20260505190017 83 225 1.7 7.8 0.00 0.00 0.00 30 1012.6
20260505184537 82 225 1.7 5.2 0.00 0.00 0.00 33 1012.6
20260505183017 82 338 1.7 7.8 0.00 0.00 0.00 34 1012.8
20260505181537 81 248 1.7 5.2 0.00 0.00 0.00 35 1013.0
20260505180017 81 293 1.7 6.1 0.00 0.00 0.00 37 1013.1
20260505174517 81 315 1.7 7.0 0.00 0.00 0.00 38 1013.2
20260505173017 80 225 1.7 5.2 0.00 0.00 0.00 40 1013.5
20260505171557 80 338 1.7 5.2 0.00 0.00 0.00 40 1013.5
20260505170017 80 180 1.7 7.0 0.00 0.00 0.00 42 1013.8
20260505164537 80 158 1.7 8.7 0.00 0.00 0.00 42 1014.0
20260505163017 81 203 1.7 3.5 0.00 0.00 0.00 44 1014.1
20260505161517 81 180 0.9 7.0 0.00 0.00 0.00 44 1014.3
20260505153016 77 23 0.9 7.0 0.00 0.00 0.00 49 1014.8
20260505151517 76 180 1.7 7.8 0.00 0.00 0.00 51 1014.8
20260505124536 62 0 0.9 2.6 0.00 0.00 0.00 70 1015.0
20260505123016 62 0 0.9 2.6 0.00 0.00 0.00 71 1015.0
20260505121516 61 0 0.9 3.5 0.00 0.00 0.00 72 1014.9
20260505120016 60 0.0 1.7 0.00 0.00 0.00 75 1014.7
20260505114556 59 0.0 0.9 0.00 0.00 0.00 76 1014.7
20260505113016 59 0 0.9 2.6 0.00 0.00 0.00 76 1014.4
20260505111516 58 0.0 1.7 0.00 0.00 0.00 76 1014.3
20260505101516 59 0.0 3.5 0.00 0.00 0.00 72 1013.8
20260505100016 60 0.0 3.5 0.00 0.00 0.00 71 1013.7
20260505094536 60 0 0.9 1.7 0.00 0.00 0.00 70 1013.7
20260505093016 61 203 0.9 2.6 0.00 0.00 0.00 69 1013.7
20260505091516 61 158 0.9 2.6 0.00 0.00 0.00 69 1013.7
20260505090016 61 135 0.9 3.5 0.00 0.00 0.00 68 1013.7
20260505084516 62 248 0.9 2.6 0.00 0.00 0.00 68 1013.8
20260505083016 62 225 0.9 3.5 0.00 0.00 0.00 68 1013.6
20260505081516 62 135 0.9 6.1 0.00 0.00 0.00 67 1013.6
20260505080016 62 180 0.9 3.5 0.00 0.00 0.00 67 1013.7
20260505074516 62 225 0.9 5.2 0.00 0.00 0.00 66 1013.6
20260505073036 61 225 0.9 5.2 0.00 0.00 0.00 65 1013.4
20260505071516 61 225 0.9 1.7 0.00 0.00 0.00 65 1013.3
20260505070016 61 248 0.9 2.6 0.00 0.00 0.00 65 1013.2
20260505064516 61 248 0.9 3.5 0.00 0.00 0.00 64 1013.2
20260505063015 61 0.0 1.7 0.00 0.00 0.00 64 1013.1
20260505061515 61 225 0.9 1.7 0.00 0.00 0.00 63 1013.1
20260505060015 61 0.0 1.7 0.00 0.00 0.00 63 1013.2
20260505054516 61 68 0.9 2.6 0.00 0.00 0.00 62 1013.2
20260505053015 60 0.0 3.5 0.00 0.00 0.00 63 1013.2
20260505051515 60 0.0 3.5 0.00 0.00 0.00 64 1013.1
20260505041516 60 0.0 0.0 0.00 0.00 0.00 64 1012.7